Location: Kings Park
(40.8862°N, 73.2573°W)
Time: 06:45:46
(UTC+00:00)

SKYMED 2 - Pass Details

Date: 29 October 2020
Orbit: 621 x 623 km, 97.9° (Epoch: 02 December)

Event Time Altitude Azimuth Distance (km) Brightness Sun altitude
Rises 22:42:52 0° 16° (NNE) 2,911 6.8 -10.2°
Reaches altitude 10° 22:45:06 10° 21° (NNE) 2,000 5.9 -10.6°
Maximum altitude 22:49:24 58° 101° (E) 728 3.6 -11.4°
Drops below altitude 10° 22:53:39 10° 180° (S) 1,983 6.3 -12.2°
Sets 22:55:51 0° 184° (S) 2,884 7.2 -12.6°
